Voltar ao catálogo

SCOUT G-1 DEB

AtivoPO
NORAD 35528·DEBRIS·🇺🇸 United States

Lançado Aug 25, 1988 de Vandenberg Space Force Base

Loading…

Próximas Passagens (próximas 24 horas)

TLE

EnvelhecendoSource: Space-Track

Época: Sep 9, 2026, 12:09 UTC

1 35528U 88074R   26252.50688867  .00000396  00000-0  52027-3 0  9992
2 35528  89.8614 330.4557 0106595  75.8578 347.3598 13.57284697613342

Acompanhe SCOUT G-1 DEB em tempo real com AllMySat

Download on the App Store